Worland, WY

6:44 AM MDT on September 23, 2017 (GMT -0600)
Worland Municipal

Weather History for KWRL - November, 2013

Change the Weather History Date:

Tuesday, November 5, 2013

  Actual Average Record
Temperature  
Mean Temperature 30 °F 37 °F  
Max Temperature 40 °F 51 °F 73 °F (2009)
Min Temperature 19 °F 23 °F 2 °F (2003)
Degree Days  
Heating Degree Days 35 28  
Month to date heating degree days 144 136  
Since 1 July heating degree days 977 998  
Cooling Degree Days 0 0  
Month to date cooling degree days 0 0  
Year to date cooling degree days 852 535  
Moisture  
Dew Point 19 °F    
Average Humidity 60    
Maximum Humidity 92    
Minimum Humidity 27    
Precipitation  
Precipitation T in 0.01 in 0.07 in (1990)
Month to date precipitation T 0.06  
Year to date precipitation 7.62 7.05  
Sea Level Pressure  
Sea Level Pressure 30.16 in    
Wind  
Wind Speed 5 mph (South)    
Max Wind Speed 9 mph    
Max Gust Speed 13 mph    
Visibility 9 miles    
Events Snow    
T = Trace of Precipitation, MM = Missing Value Source: NWS Daily Summary

Daily Weather History Graph

Daily Weather History Graph

Search for Another Location

Airport or City:

Trip Planner

Search our weather history database for the weather conditions in past years. The results will help you decide how hot, cold, wet, or windy it might be!

Date:

Astronomy

Nov. 05, 2013 Rise Set
Actual Time 6:53 AM MST 4:56 PM MST
Civil Twilight 6:23 AM MST 5:26 PM MST
Nautical Twilight 5:49 AM MST 6:00 PM MST
Astronomical Twilight 5:15 AM MST 6:34 PM MST
Moon 9:15 AM MST (11/5) 6:57 PM MST (11/5)
Length of Visible Light 11h 03m
Length of Day
10h 02m
Waxing Crescent, 7% of the Moon is Illuminated
Nov 5
Waxing Crescent
Nov 9
First Quarter
Nov 17
Full
Nov 25
Last Quarter
Dec 2
New

Hourly Weather History & Observations

Time (MST) Temp. Windchill Dew Point Humidity Pressure Visibility Wind Dir Wind Speed Gust Speed Precip Events Conditions
12:53 AM 27.0 °F 21.6 °F 25.0 °F 92% 30.14 in 5.0 mi SSE 4.6 mph - 0.00 in Snow Light Snow
1:01 AM 28.4 °F 23.3 °F 26.6 °F 93% 30.06 in 1.8 mi South 4.6 mph - 0.00 in Snow Light Snow
1:08 AM 28.4 °F 24.6 °F 26.6 °F 93% 30.06 in 3.0 mi South 3.5 mph - 0.00 in Snow Light Snow
1:53 AM 27.0 °F 21.6 °F 25.0 °F 92% 30.14 in 6.0 mi South 4.6 mph - 0.00 in Snow Light Snow
2:53 AM 23.0 °F 17.0 °F 21.0 °F 92% 30.15 in 10.0 mi South 4.6 mph - 0.00 in   Clear
3:53 AM 21.0 °F 16.2 °F 19.0 °F 92% 30.17 in 10.0 mi SSW 3.5 mph - N/A   Partly Cloudy
4:53 AM 21.0 °F 14.6 °F 19.0 °F 92% 30.19 in 10.0 mi South 4.6 mph - N/A   Clear
5:53 AM 21.9 °F 14.5 °F 19.9 °F 92% 30.22 in 10.0 mi SE 5.8 mph - N/A   Mostly Cloudy
6:32 AM 24.8 °F - 21.2 °F 86% 30.10 in 10.0 mi Calm Calm - N/A   Overcast
6:53 AM 25.0 °F 20.7 °F 23.0 °F 92% 30.23 in 10.0 mi SSW 3.5 mph - N/A   Overcast
7:41 AM 24.8 °F 16.1 °F 21.2 °F 86% 30.11 in 10.0 mi South 8.1 mph - N/A   Scattered Clouds
7:53 AM 25.0 °F 17.1 °F 23.0 °F 92% 30.24 in 10.0 mi South 6.9 mph - N/A   Clear
8:10 AM 26.6 °F 17.5 °F 23.0 °F 86% 30.13 in 10.0 mi SSW 9.2 mph - N/A   Mostly Cloudy
8:39 AM 24.8 °F 17.9 °F 24.8 °F 100% 30.13 in 1.8 mi WSW 5.8 mph - N/A   Overcast
8:49 AM 24.8 °F 19.1 °F 24.8 °F 100% 30.14 in 3.0 mi WSW 4.6 mph - N/A   Mostly Cloudy
8:53 AM 26.1 °F 21.9 °F 24.1 °F 92% 30.25 in 9.0 mi SSW 3.5 mph - N/A   Mostly Cloudy
9:07 AM 26.6 °F 22.6 °F 24.8 °F 93% 30.14 in 10.0 mi SSW 3.5 mph - N/A   Partly Cloudy
9:53 AM 30.9 °F 26.2 °F 25.0 °F 79% 30.23 in 10.0 mi South 4.6 mph - N/A   Clear
10:53 AM 35.1 °F 29.3 °F 21.9 °F 59% 30.22 in 10.0 mi South 6.9 mph - N/A   Clear
11:53 AM 36.0 °F 31.1 °F 19.0 °F 50% 30.20 in 10.0 mi Variable 5.8 mph - N/A   Clear
12:53 PM 37.9 °F 33.5 °F 14.0 °F 38% 30.15 in 10.0 mi SSE 5.8 mph - N/A   Clear
1:53 PM 39.0 °F 35.7 °F 10.0 °F 30% 30.13 in 10.0 mi SSE 4.6 mph - N/A   Clear
2:53 PM 39.9 °F 36.7 °F 9.0 °F 28% 30.13 in 10.0 mi SE 4.6 mph - N/A   Clear
3:53 PM 39.9 °F 37.8 °F 9.0 °F 28% 30.13 in 10.0 mi South 3.5 mph - N/A   Clear
4:53 PM 34.0 °F 29.8 °F 12.9 °F 42% 30.15 in 10.0 mi ESE 4.6 mph - N/A   Clear
5:53 PM 28.0 °F 19.3 °F 12.9 °F 53% 30.17 in 10.0 mi ESE 9.2 mph - N/A   Clear
6:53 PM 26.1 °F - 15.1 °F 63% 30.17 in 10.0 mi Calm Calm - N/A   Clear
7:53 PM 30.0 °F - 12.0 °F 47% 30.18 in 10.0 mi Calm Calm - N/A   Clear
8:53 PM 27.0 °F 21.6 °F 12.9 °F 56% 30.20 in 10.0 mi South 4.6 mph - N/A   Clear
9:53 PM 23.0 °F 15.8 °F 15.1 °F 72% 30.22 in 10.0 mi South 5.8 mph - N/A   Clear
10:53 PM 23.0 °F 17.0 °F 16.0 °F 74% 30.20 in 10.0 mi South 4.6 mph - N/A   Mostly Cloudy
11:53 PM 21.9 °F 17.2 °F 15.1 °F 75% 30.20 in 10.0 mi South 3.5 mph - N/A   Clear